Location: East Irvine
(33.6759°N, 117.7598°W)
Time: 00:27:46
(UTC+00:00)

Cosmos 1656 Rocket - Pass Details

Date: 15 November 2025
Orbit: 791 x 846 km, 71.1° (Epoch: 07 December)

Event Time Altitude Azimuth Distance (km) Brightness Sun altitude
Rises 02:07:34 0° 173° (S) 3,303 6.8 -16.6°
Reaches altitude 10° 02:10:13 10° 162° (SSE) 2,385 6.0 -17.1°
Maximum altitude 02:14:55 30° 103° (ESE) 1,423 4.4 -18.1°
Enters shadow 02:15:12 30° 97° (E) 1,429 4.3 -18.2°
